Preview of NWS' New Version of Forecast
This preview is not operational and should not be used for support decisions.

Regional Weather Roundup (RWR)

Issued by National Weather Service (NWS)

                            
000
ASPQ40 PGUM 260810
RWRPQ 
WEATHER ROUNDUP FOR THE MARIANAS AND MICRONESIA
NATIONAL WEATHER SERVICE TIYAN GU
600 PM CHST FRI APR 26 2019

GUZ001>004-260900-
MARIANA ISLANDS-
  
CITY           SKY/WX    TMP DP  RH WIND       PRES   REMARKS
GUAM AIRPORT   PTCLDY    82  72  69 E12       29.84R                  
ANDERSEN AFB   PTCLDY    81  72  74 NE13      29.85R                  
ROTA AIRPORT   PTCLDY    81  72  74 E15       29.83R                  
TINIAN AP      PTCLDY    84  72  65 E17       29.83R                  
SAIPAN AP      PTCLDY    82  72  69 E15       29.84R                  

$$

PMZ161-260900-
REPUBLIC OF PALAU-
  
CITY           SKY/WX    TMP DP  RH WIND       PRES   REMARKS
KOROR AP       CLOUDY    79  77  94 NE6         N/A                   
KOROR WSO      NOT AVBL                                               

$$

PMZ171>174-260900-
FEDERATED STATES OF MICRONESIA-
  
CITY           SKY/WX    TMP DP  RH WIND       PRES   REMARKS
YAP AIRPORT    CLOUDY    84  77  79 VRB7      29.76S HX  94           
CHUUK AP       CLOUDY    84  79  84 NE10      29.75R HX  96           
POHNPEI AP     NOT AVBL                                               
POHNPEI WSO    MOCLDY    82  75  78 E3        29.79R                  
KOSRAE AP      NOT AVBL                                               

$$

PMZ181-260900-
REPUBLIC OF THE MARSHALL ISLANDS-
  
CITY           SKY/WX    TMP DP  RH WIND       PRES   REMARKS
KWAJALEIN AP   PTCLDY    82  75  78 E21       29.79R                  
MAJURO AP      PTCLDY    82  77  83 NE23      29.78R HX  91           
MAJURO WSO     MOCLDY    82  73  74 E16G29    29.77R                  

$$